Home   Weather   Bellingham   Past weeks

Flag for USA Past Weather in Bellingham, Washington, USA — Yesterday and Last 2 Weeks

55 °F

Scattered clouds.

Feels Like: 54 °F
Forecast: 49 / 60 °F
Wind: 6 mph from Northeast

Location: Bellingham International Airport

Current Time: Oct 28, 2016 at 10:53:12 AM

Latest Report: Oct 28, 2016 at 9:53 AM

Visibility: N/A

Pressure: 29.98 "Hg

Humidity: 77%

Dew Point: 48 °F

Location of BellinghamLocation

Past Weather in Bellingham — Graph


Bellingham Temperature Yesterday

Maximum temperature yesterday: 58 °F (at 12:53 AM)
Minimum temperature yesterday: 55 °F (at 1:53 PM)
Average temperature yesterday: 57 °F

High & Low Weather Summary for the Past Weeks

High64 °F (Oct 24, 2:53 PM)100% (Oct 13, 5:58 PM)30.33 "Hg (Oct 13, 5:58 PM)
Low39 °F (Oct 22, 6:53 AM)49% (Oct 24, 2:53 PM)29.04 "Hg (Oct 15, 6:53 PM)
Average54 °F81%29.77 "Hg
* Reported Oct 13 9:53 AM — Oct 28 9:53 AM, Bellingham, Weather by CustomWeather, © 2016

Note: Actual official high and low records may vary slightly from our data, if they occured in-between our weather recording intervals... More about our weather records


Bellingham Weather History for the Previous 24 Hours

Scroll right to see more
Time TempWeatherWind HumidityBarometerVisibility
9:53 AM
Fri, Oct 28
55 °FScattered clouds.6 mph77%29.98 "HgN/A
8:53 AM51 °FPartly sunny.5 mph89%29.97 "Hg10 mi
7:53 AM49 °FCloudy.No wind93%29.95 "Hg10 mi
6:53 AM50 °FOvercast.3 mph86%29.95 "Hg10 mi
5:53 AM53 °FClear.7 mph77%29.94 "Hg10 mi
5:00 AM55 °FMostly cloudy.10 mph72%29.92 "Hg10 mi
3:53 AM55 °FOvercast.7 mph74%29.93 "Hg10 mi
2:53 AM55 °FPassing clouds.7 mph72%29.91 "Hg10 mi
1:53 AM56 °FOvercast.10 mph70%29.90 "Hg10 mi
1:00 AM55 °FPassing clouds.9 mph74%29.88 "Hg10 mi
11:53 PM
Thu, Oct 27
55 °FPartly cloudy.13 mph74%29.89 "Hg10 mi
10:53 PM56 °FMostly cloudy.9 mph72%29.88 "Hg10 mi
9:53 PM56 °FOvercast.9 mph75%29.87 "Hg10 mi
9:00 PM55 °FMostly cloudy.8 mph80%29.83 "Hg10 mi
8:53 PM55 °FMostly cloudy.7 mph80%29.85 "Hg10 mi
7:53 PM56 °FOvercast.10 mph77%29.85 "Hg10 mi
6:53 PM56 °FOvercast.14 mph77%29.84 "Hg10 mi
5:53 PM56 °FMostly cloudy.12 mph81%29.83 "Hg10 mi
4:53 PM57 °FOvercast.12 mph74%29.83 "Hg10 mi
3:53 PM57 °FOvercast.9 mph78%29.83 "Hg10 mi
3:00 PM56 °FMostly cloudy.6 mph81%29.81 "Hg10 mi
1:53 PM55 °FLight rain. Overcast.5 mph83%29.83 "Hg10 mi
12:53 PM57 °FMostly cloudy.12 mph72%29.83 "Hg10 mi
11:53 AM58 °FOvercast.10 mph67%29.82 "Hg10 mi
10:53 AM58 °FPartly sunny.14 mph67%29.81 "Hg10 mi
Weather by CustomWeather, © 2016

See weather overviewHow to use our weather pages